This is the latest recevied weather packets stored in our database for station/object N2PPN. If no packets are shown the sender has not sent any weather packets the latest 10 day(s).
| Time | Temp. | Humidity | Pressure | Rain* | Wind** | Luminosity | Snow |
|---|---|---|---|---|---|---|---|
| 1777548280 | 8.89° C | 99% | 1011.1 hPa | 0 mm | - | 40 W/m² | - |
| 1777547977 | 8.89° C | 99% | 1011.3 hPa | 0 mm | - | 42 W/m² | - |
| 1777547673 | 8.89° C | 99% | 1011.3 hPa | 0 mm | - | 28 W/m² | - |
| 1777547370 | 8.89° C | 99% | 1011.2 hPa | 0 mm | - | 28 W/m² | - |
| 1777547068 | 8.89° C | 99% | 1011.1 hPa | 0 mm | - | 25 W/m² | - |
| 1777546765 | 8.89° C | 99% | 1010.9 hPa | 0 mm | - | 18 W/m² | - |
| 1777546462 | 8.89° C | 99% | 1011.1 hPa | 0 mm | - | 19 W/m² | - |
| 1777546159 | 8.89° C | 99% | 1010.9 hPa | 1.78 mm | - | 14 W/m² | - |
| 1777545855 | 8.89° C | 99% | 1011.1 hPa | 1.78 mm | - | 11 W/m² | - |
| 1777545552 | 8.89° C | 99% | 1011.2 hPa | 1.78 mm | - | 8 W/m² | - |
| 1777545248 | 8.89° C | 99% | 1010.7 hPa | 0 mm | - | 7 W/m² | - |
| 1777544946 | 8.89° C | 99% | 1010.9 hPa | 0 mm | - | 5 W/m² | - |
| 1777544642 | 8.89° C | 99% | 1010.8 hPa | 0 mm | - | 5 W/m² | - |
| 1777544338 | 8.89° C | 99% | 1010.7 hPa | 1.27 mm | - | 4 W/m² | - |
| 1777544035 | 8.89° C | 99% | 1010.9 hPa | 1.27 mm | - | 2 W/m² | - |
| 1777543733 | 8.89° C | 99% | 1011.1 hPa | 0 mm | - | 1 W/m² | - |
| 1777543429 | 8.89° C | 99% | 1010.8 hPa | 0 mm | - | 1 W/m² | - |
| 1777543124 | 8.89° C | 99% | 1010.7 hPa | 0 mm | - | 0 W/m² | - |
| 1777542820 | 8.89° C | 99% | 1010.5 hPa | 0 mm | - | 0 W/m² | - |
| 1777542517 | 8.89° C | 99% | 1010.6 hPa | 0 mm | - | 0 W/m² | - |
| 1777542213 | 8.89° C | 99% | 1010.4 hPa | 0 mm | - | 0 W/m² | - |
| 1777541911 | 8.89° C | 99% | 1010.5 hPa | 0 mm | - | 0 W/m² | - |
| 1777541608 | 8.89° C | 99% | 1010.7 hPa | 0 mm | - | 0 W/m² | - |
| 1777541305 | 8.89° C | 99% | 1010.9 hPa | 0 mm | - | 0 W/m² | - |
| 1777541000 | 8.89° C | 99% | 1010.5 hPa | 0 mm | - | 0 W/m² | - |
* Rain latest hour (hover to see other rain measurements)
** Current wind speed in m/s (hover to see current wind gust speed)